Location: Baili�vre
(50.0696°N, 4.2409°E)
Time: 06:15:47
(UTC+00:00)

N. Korean satellite - Visible Passes

Search period start: 25 January 2022 00:00
Search period end: 04 February 2022 00:00
Orbit: 447 x 491 km, 97.3° (Epoch: 24 January)

Date Brightness Start Highest point End Pass type
(mag) Time Alt. Az. Time Alt. Az. Time Alt. Az.
25 Jan 7.7 04:42:15 10° NNE 04:45:46 43° E 04:46:52 33° SE visible
25 Jan 8.0 06:16:05 10° NNW 06:18:36 18° WNW 06:20:56 11° WSW visible
26 Jan 9.1 04:13:33 10° NE 04:16:24 21° E 04:17:46 17° ESE visible
26 Jan 7.2 05:46:18 10° N 05:49:38 34° WNW 05:51:51 17° SW visible
27 Jan 10.0 03:46:06 10° ENE 03:46:55 11° E 03:47:43 10° E visible
27 Jan 6.4 05:16:53 10° N 05:20:32 73° WNW 05:22:47 22° SSW visible
28 Jan 7.4 04:47:42 10° NNE 04:51:17 50° E 04:53:43 18° S visible
28 Jan 8.2 06:21:46 10° NNW 06:24:04 16° WNW 06:26:21 10° W visible
29 Jan 8.9 04:18:53 10° NE 04:21:55 24° E 04:24:42 11° SSE visible
29 Jan 7.4 05:51:51 10° N 05:55:04 30° WNW 05:58:16 10° SW visible
30 Jan 9.9 03:50:54 10° ENE 03:52:25 12° E 03:53:54 10° ESE visible
30 Jan 6.5 05:22:20 10° N 05:25:57 63° WNW 05:29:31 10° SSW visible
31 Jan 7.1 04:53:04 10° NNE 04:56:42 59° E 05:00:15 10° S visible
31 Jan 8.3 06:27:22 10° NNW 06:29:24 14° WNW 06:31:24 10° W visible
01 Feb 8.7 04:24:08 10° NE 04:27:18 27° E 04:30:26 10° SSE visible
01 Feb 7.5 05:57:17 10° N 06:00:23 26° WNW 06:03:27 10° SW visible
02 Feb 9.7 03:55:50 10° ENE 03:57:47 14° E 03:59:41 10° ESE visible
02 Feb 6.6 05:27:40 10° N 05:31:14 54° WNW 05:34:46 10° SSW visible
03 Feb 6.8 04:58:19 10° NNE 05:01:58 68° ESE 05:05:33 10° S visible
03 Feb 8.4 06:32:56 10° NNW 06:34:36 13° WNW 06:36:15 10° W visible
